Location: Balaclava NSW 2575, Australia
(34.4510°S, 150.4953°E)
Time: 21:54:01
(UTC+10:00)

Explorer 7 - All Passes

Search period start: 13 June 2021 00:00
Search period end: 23 June 2021 00:00
Orbit: 484 x 677 km, 50.3° (Epoch: 12 June)

Date Brightness Start Highest point End Pass type
(mag) Time Alt. Az. Time Alt. Az. Time Alt. Az.
13 Jun - 10:08:40 10° NNW 10:12:11 38° NE 10:15:49 10° ESE daylight
13 Jun - 11:49:22 10° W 11:52:41 27° SSW 11:56:11 10° SSE daylight
13 Jun - 13:34:16 10° S 13:34:22 10° S 13:34:28 10° S daylight
13 Jun - 15:15:27 10° S 15:16:33 11° SSE 15:17:40 10° SSE daylight
13 Jun - 16:54:18 10° SSW 16:58:12 30° SSE 17:02:15 10° E daylight
13 Jun - 18:34:29 10° WSW 18:38:51 47° NW 18:43:23 10° NNE visible
14 Jun - 10:12:41 10° NW 10:16:27 72° NE 10:20:22 10° SE daylight
14 Jun - 11:54:28 10° WSW 11:57:17 19° SSW 12:00:12 10° SSE daylight
14 Jun - 15:19:16 10° S 15:21:18 13° SSE 15:23:24 10° SE daylight
14 Jun - 16:58:27 10° SW 17:02:40 44° SE 17:07:07 10° ENE daylight
14 Jun - 18:39:12 10° WSW 18:43:05 28° NW 18:47:06 10° N visible
15 Jun - 08:39:02 10° NNE 08:40:49 13° NE 08:42:36 10° E daylight
15 Jun - 10:17:03 10° WNW 10:20:48 62° SW 10:24:42 10° SE daylight
15 Jun - 11:59:49 10° SW 12:01:57 14° SSW 12:04:07 10° SSE daylight
15 Jun - 15:23:13 10° SSW 15:26:00 17° SSE 15:28:52 10° ESE daylight
15 Jun - 17:02:41 10° SW 17:07:04 70° SE 17:11:42 10° NE daylight
15 Jun - 18:44:25 10° W 18:47:16 16° NW 18:50:12 10° NNW visible
16 Jun - 08:41:54 10° N 08:44:57 24° NE 08:48:04 10° ESE daylight
16 Jun - 10:21:42 10° WNW 10:25:14 36° SW 10:28:54 10° SE daylight
16 Jun - 12:05:33 10° SSW 12:06:41 11° SSW 12:07:49 10° S daylight
16 Jun - 15:27:13 10° SSW 15:30:36 22° SSE 15:34:07 10° E daylight
16 Jun - 17:07:03 10° SW 17:11:25 71° NW 17:16:02 10° NE daylight
17 Jun - 08:45:36 10° NNW 08:49:10 44° NE 08:52:50 10° ESE daylight
17 Jun - 10:26:37 10° W 10:29:45 24° SSW 10:32:59 10° SSE daylight
17 Jun - 13:52:41 10° S 13:53:36 11° SSE 13:54:32 10° SSE daylight
17 Jun - 15:31:19 10° SSW 15:35:08 31° SSE 15:39:09 10° E daylight
17 Jun - 17:11:35 10° WSW 17:15:42 41° NW 17:20:02 10° NNE visible
18 Jun - 08:49:42 10° NW 08:53:28 84° NE 08:57:19 10° SE daylight
18 Jun - 10:31:47 10° WSW 10:34:21 17° SSW 10:36:58 10° SSE daylight
18 Jun - 13:56:20 10° S 13:58:20 13° SSE 14:00:22 10° SE daylight
18 Jun - 15:35:28 10° SW 15:39:35 48° SE 15:43:57 10° ENE daylight
18 Jun - 17:16:24 10° WSW 17:19:55 24° NW 17:23:36 10° N visible
19 Jun - 07:15:32 10° NNE 07:17:45 15° NE 07:19:59 10° E daylight
19 Jun - 08:54:08 10° WNW 08:57:50 54° SW 09:01:37 10° SE daylight
19 Jun - 10:37:15 10° SW 10:39:00 13° SSW 10:40:48 10° S daylight
19 Jun - 14:00:14 10° SSW 14:03:00 17° SSE 14:05:50 10° ESE daylight
19 Jun - 15:39:43 10° SW 15:43:59 79° SE 15:48:29 10° NE daylight
19 Jun - 17:21:52 10° W 17:24:06 14° NW 17:26:24 10° NNW visible
20 Jun - 07:18:41 10° N 07:21:56 27° NE 07:25:11 10° ESE daylight
20 Jun - 08:58:51 10° W 09:02:16 32° SSW 09:05:47 10° SSE daylight
20 Jun - 14:04:14 10° SSW 14:07:35 23° SSE 14:11:03 10° E daylight
20 Jun - 15:44:06 10° SW 15:48:18 61° NW 15:52:44 10° NE daylight
21 Jun - 07:22:29 10° NNW 07:26:10 51° NE 07:29:52 10° ESE daylight
21 Jun - 09:03:49 10° W 09:06:48 21° SSW 09:09:50 10° SSE daylight
21 Jun - 12:29:51 10° S 12:30:38 10° SSE 12:31:27 10° SSE daylight
21 Jun - 14:08:19 10° SSW 14:12:05 33° SSE 14:16:03 10° E daylight
21 Jun - 15:48:42 10° WSW 15:52:35 35° NW 15:56:39 10° NNE daylight
22 Jun - 07:26:41 10° NW 07:30:28 84° SW 07:34:17 10° SE daylight
22 Jun - 09:09:04 10° WSW 09:11:25 15° SSW 09:13:46 10° SSE daylight
22 Jun - 12:33:22 10° S 12:35:21 13° SSE 12:37:22 10° SE daylight
22 Jun - 14:12:29 10° SW 14:16:31 53° SE 14:20:47 10° ENE daylight
22 Jun - 15:53:38 10° W 15:56:47 20° NW 16:00:03 10° N daylight
